Weather History for Nampa, ID

Change the Weather History Date:

Monday, December 23, 2013

  Actual Average (KBOI) Record (KBOI)
Temperature  
Mean Temperature 34 °F 30 °F  
Max Temperature 37 °F 36 °F 57 °F (1885)
Min Temperature 30 °F 23 °F -18 °F (1983)
Degree Days  
Heating Degree Days 32 35  
Month to date heating degree days 778  
Since 1 July heating degree days 2032  
Cooling Degree Days 0 0  
Month to date cooling degree days 0  
Year to date cooling degree days 942  
Moisture  
Dew Point 33 °F    
Average Humidity 100    
Maximum Humidity 100    
Minimum Humidity 93    
Precipitation  
Precipitation 0.00 in 0.05 in 1.03 in (1955)
Month to date precipitation 1.15  
Year to date precipitation 11.33  
Snow  
Snow 0.00 in 0.30 in 2.90 in (1968)
Month to date snowfall 5.0  
Since 1 July snowfall 7.7  
Snow Depth -    
Sea Level Pressure  
Sea Level Pressure 30.32 in    
Wind  
Wind Speed 1 mph (SE)    
Max Wind Speed 16 mph    
Max Gust Speed 20 mph    
Visibility 4 miles    
Events      
T = Trace of Precipitation, MM = Missing Value Source: NWS Daily Summary

Daily Weather History Graph

Daily Weather History Graph

Search for Another Location

Airport:

Trip Planner

Search our weather history database for the weather conditions in past years. The results will help you decide how hot, cold, wet, or windy it might be!

Date:

Astronomy

Dec. 23, 2013 Rise Set
Actual Time 8:17 AM MST 5:13 PM MST
Civil Twilight 7:44 AM MST 5:46 PM MST
Nautical Twilight 7:08 AM MST 6:22 PM MST
Astronomical Twilight 6:33 AM MST 6:57 PM MST
Moon 11:38 PM MST (12/23) 11:34 AM MST (12/23)
Length of Visible Light 10h 02m
Length of Day
8h 56m
Waning Gibbous, 67% of the Moon is Illuminated
Dec 23
Waning Gibbous
Dec 25
Last Quarter
Jan 1
New
Jan 7
First Quarter
Jan 15
Full

Hourly Weather History & Observations

Time (MST) Temp. Windchill Dew Point Humidity Pressure Visibility Wind Dir Wind Speed Gust Speed Precip Events Conditions
12:15 AM 32.0 °F - 32.0 °F 100% 30.36 in 4.0 mi North - - N/A   Overcast
12:35 AM 32.0 °F - 32.0 °F 100% 30.36 in 3.0 mi North - - N/A   Overcast
12:55 AM 32.0 °F - 32.0 °F 100% 30.37 in 5.0 mi North - - N/A   Overcast
1:15 AM 32.0 °F - 32.0 °F 100% 30.37 in 4.0 mi Calm Calm - N/A   Overcast
1:35 AM 32.0 °F - 32.0 °F 100% 30.37 in 4.0 mi Calm Calm - N/A   Overcast
1:55 AM 32.0 °F - 32.0 °F 100% 30.37 in 3.0 mi North - - N/A   Overcast
2:15 AM 32.0 °F - 32.0 °F 100% 30.37 in 4.0 mi Calm Calm - N/A   Overcast
2:35 AM 32.0 °F - 32.0 °F 100% 30.37 in 4.0 mi North - - N/A   Overcast
2:55 AM 32.0 °F - 32.0 °F 100% 30.37 in 4.0 mi North - - N/A   Overcast
3:15 AM 32.0 °F - 32.0 °F 100% 30.37 in 4.0 mi North - - N/A   Overcast
3:35 AM 32.0 °F - 32.0 °F 100% 30.37 in 3.0 mi Calm Calm - N/A   Overcast
3:55 AM 32.0 °F 28.7 °F 32.0 °F 100% 30.37 in 3.0 mi North 3.5 mph - N/A   Overcast
4:15 AM 32.0 °F - 32.0 °F 100% 30.37 in 3.0 mi Calm Calm - N/A   Overcast
4:35 AM 32.0 °F - 32.0 °F 100% 30.36 in 3.0 mi Calm Calm - N/A   Overcast
4:55 AM 32.0 °F - 32.0 °F 100% 30.36 in 2.5 mi Calm Calm - N/A   Mostly Cloudy
5:15 AM 32.0 °F - 32.0 °F 100% 30.35 in 2.5 mi Calm Calm - N/A   Mostly Cloudy
5:35 AM 32.0 °F - 32.0 °F 100% 30.36 in 2.5 mi Calm Calm - N/A   Overcast
5:55 AM 32.0 °F - 32.0 °F 100% 30.36 in 3.0 mi Calm Calm - N/A   Mostly Cloudy
6:15 AM 32.0 °F - 32.0 °F 100% 30.35 in 3.0 mi Calm Calm - N/A   Mostly Cloudy
6:35 AM 32.0 °F - 32.0 °F 100% 30.35 in 3.0 mi Calm Calm - N/A   Mostly Cloudy
6:55 AM 32.0 °F - 32.0 °F 100% 30.35 in 3.0 mi Calm Calm - N/A   Mostly Cloudy
7:15 AM 30.2 °F - 30.2 °F 100% 30.35 in 1.5 mi Calm Calm - N/A   Overcast
7:35 AM 30.2 °F - 30.2 °F 100% 30.35 in 1.8 mi Calm Calm - N/A   Overcast
7:55 AM 32.0 °F - 32.0 °F 100% 30.36 in 1.8 mi Calm Calm - N/A   Overcast
8:15 AM 32.0 °F - 32.0 °F 100% 30.36 in 1.5 mi Calm Calm - N/A   Overcast
8:35 AM 30.2 °F - 30.2 °F 100% 30.37 in 0.8 mi Calm Calm - N/A   Overcast
8:55 AM 30.2 °F - 30.2 °F 100% 30.37 in 1.0 mi Calm Calm - N/A   Mostly Cloudy
9:15 AM 30.2 °F - 30.2 °F 100% 30.37 in 1.8 mi Calm Calm - N/A   Overcast
9:35 AM 32.0 °F - 32.0 °F 100% 30.38 in 1.2 mi Calm Calm - N/A   Mostly Cloudy
9:55 AM 32.0 °F - 32.0 °F 100% 30.38 in 2.0 mi Calm Calm - N/A   Scattered Clouds
10:15 AM 32.0 °F 26.4 °F 32.0 °F 100% 30.37 in 2.0 mi SE 5.8 mph - N/A   Mostly Cloudy
10:35 AM 32.0 °F 28.7 °F 32.0 °F 100% 30.37 in 1.8 mi SSE 3.5 mph - N/A   Overcast
10:55 AM 32.0 °F - 32.0 °F 100% 30.37 in 2.0 mi Calm Calm - N/A   Overcast
11:15 AM 32.0 °F - 32.0 °F 100% 30.38 in 2.5 mi Calm Calm - N/A   Overcast
11:35 AM 32.0 °F - 32.0 °F 100% 30.38 in 3.0 mi Calm Calm - N/A   Overcast
11:55 AM 32.0 °F - 32.0 °F 100% 30.37 in 3.0 mi Calm Calm - N/A   Overcast
12:15 PM 33.8 °F - 33.8 °F 100% 30.36 in 3.0 mi Calm Calm - N/A   Overcast
12:35 PM 33.8 °F - 32.0 °F 93% 30.36 in 3.0 mi Calm Calm - N/A   Mostly Cloudy
12:55 PM 35.6 °F 32.8 °F 33.8 °F 93% 30.34 in 3.0 mi ESE 3.5 mph - N/A   Mostly Cloudy
1:15 PM 35.6 °F 30.7 °F 35.6 °F 100% 30.33 in 3.0 mi SE 5.8 mph - N/A   Overcast
1:35 PM 35.6 °F 31.7 °F 35.6 °F 100% 30.31 in 3.0 mi ESE 4.6 mph - N/A   Scattered Clouds
1:55 PM 35.6 °F 31.7 °F 35.6 °F 100% 30.31 in 3.0 mi SSW 4.6 mph - N/A   Partly Cloudy
2:15 PM 35.6 °F 30.7 °F 35.6 °F 100% 30.31 in 3.0 mi WNW 5.8 mph - N/A   Mostly Cloudy
2:35 PM 35.6 °F - 35.6 °F 100% 30.30 in 4.0 mi Calm Calm - N/A   Overcast
2:55 PM 35.6 °F - 35.6 °F 100% 30.29 in 4.0 mi Calm Calm - N/A   Scattered Clouds
3:15 PM 37.4 °F - 35.6 °F 93% 30.29 in 4.0 mi Calm Calm - N/A   Partly Cloudy
3:35 PM 35.6 °F - 35.6 °F 100% 30.29 in 3.0 mi Calm Calm - N/A   Mostly Cloudy
3:55 PM 35.6 °F - 35.6 °F 100% 30.29 in 2.5 mi Calm Calm - N/A   Overcast
4:15 PM 35.6 °F - 35.6 °F 100% 30.28 in 3.0 mi Calm Calm - N/A   Overcast
4:35 PM 35.6 °F - 35.6 °F 100% 30.29 in 3.0 mi Calm Calm - N/A   Overcast
4:55 PM 35.6 °F - 35.6 °F 100% 30.28 in 3.0 mi Calm Calm - N/A   Overcast
5:15 PM 35.6 °F 32.8 °F 35.6 °F 100% 30.27 in 3.0 mi South 3.5 mph - N/A   Overcast
5:35 PM 35.6 °F - 35.6 °F 100% 30.27 in 3.0 mi Calm Calm - N/A   Overcast
5:55 PM 35.6 °F 32.8 °F 35.6 °F 100% 30.26 in 5.0 mi ESE 3.5 mph - N/A   Overcast
6:15 PM 35.6 °F - 35.6 °F 100% 30.24 in 6.0 mi North - - N/A   Overcast
6:35 PM 35.6 °F - 35.6 °F 100% 30.24 in 6.0 mi North - - N/A   Overcast
6:55 PM 35.6 °F - 35.6 °F 100% 30.25 in 5.0 mi Calm Calm - N/A   Overcast
7:15 PM 35.6 °F - 35.6 °F 100% 30.24 in 6.0 mi Calm Calm - N/A   Overcast
7:35 PM 35.6 °F - 35.6 °F 100% 30.24 in 6.0 mi Calm Calm - N/A   Overcast
7:55 PM 35.6 °F - 35.6 °F 100% 30.23 in 7.0 mi Calm Calm - N/A   Overcast
8:15 PM 35.6 °F 31.7 °F 35.6 °F 100% 30.23 in 9.0 mi ESE 4.6 mph - N/A   Mostly Cloudy
8:35 PM 37.4 °F 34.9 °F 37.4 °F 100% 30.23 in 10.0 mi SE 3.5 mph - N/A   Overcast
8:55 PM 35.6 °F 30.7 °F 35.6 °F 100% 30.22 in 10.0 mi SE 5.8 mph - N/A   Overcast
9:15 PM 37.4 °F 33.8 °F 37.4 °F 100% 30.21 in 10.0 mi SSW 4.6 mph 16.1 mph N/A   Overcast
9:35 PM 37.4 °F 32.1 °F 37.4 °F 100% 30.23 in 10.0 mi NNW 6.9 mph - N/A   Overcast
9:55 PM 35.6 °F 29.9 °F 35.6 °F 100% 30.23 in 7.0 mi WNW 6.9 mph - N/A   Scattered Clouds
10:15 PM 32.0 °F 21.2 °F 32.0 °F 100% 30.26 in 2.5 mi NNW 16.1 mph 19.6 mph N/A   Mostly Cloudy
10:35 PM 32.0 °F 27.5 °F 32.0 °F 100% 30.28 in 3.0 mi North 4.6 mph - N/A   Mostly Cloudy
10:55 PM 32.0 °F - 32.0 °F 100% 30.28 in 2.5 mi Calm Calm - N/A   Overcast
11:15 PM 35.6 °F - 35.6 °F 100% 30.30 in 4.0 mi North - - N/A   Overcast
11:35 PM 35.6 °F - 35.6 °F 100% 30.33 in 5.0 mi North - - N/A   Overcast
11:55 PM 33.8 °F - 33.8 °F 100% 30.33 in 3.0 mi North - - N/A   Overcast